Время (UTC), дата Ветер
(°,м/с) 
Видим.   Явления Облачность Т
(°С)
Тd
(°С)
f(%) Тe
(°С)
Pmin
(гПа)
dP
(гПа)
Po
(мм)
O2
(г/м3)
Тmin Tmax R s Состояние
почвы
00 01.05.11 290 (З) >10 км    10/5 630 м средняя 
[Sc diur, vesp|Ac und]
+10.8 +9.3 90 +11  1010.5  0.9  718  277           
03 01.05.11 300 (СЗ) >10 км    8/8 180 м 
[Sc diur, vesp]
+10.4 +9 91 +11  1010.8  0.2  718  277           
06 01.05.11 280 (З) >10 км    8/6 330 м кучево-дожд., средняя 
[Cb calv|Ac und]
+12.5 +10 85 +14  1011.6  1.2  719  275  +9.8         
09 01.05.11 220 (ЮЗ) >10 км    10/8 500 м кучево-дожд., средняя 
[Cb calv|Ac und]
+15.2 +10.3 73 +19  1010.6  -0.5  719  272           
12 01.05.11 300 (СЗ) >10 км    8/5 630 м кучево-дожд., средняя 
[Cb calv|Ac und]
+17 +9.7 62 +19  1010.2  0.1  719  271           
15 01.05.11 310 (СЗ) >10 км    10/3 600 м средняя, верхняя 
[Sc diur, vesp|Ac trans|Ci fib]
+15.3 +8.7 65 +15  1010.8  0.3  719  273    +17.8       
18 01.05.11 310 (СЗ) >10 км    4/0 средняя 
[Ac trans]
+12.9 +8 72 +13  1011.9  0.6  719  275    +17.8       
21 01.05.11 360 (С) >10 км    6/0 средняя 
[Ac trans]
+11.9 +8.4 79 +12  1011.9  -0.2  719  276           
00 02.05.11 360 (С) >10 км    6/0 средняя 
[Ac As]
+11.4 +8.3 81 +13  1011.8  -0.2  719  277           
03 02.05.11 340 (С) >10 км    10/4 1000 м средняя 
[Sc|Ac und]
+11.5 +8.3 81 +13  1011.9  0.2  719  277           
06 02.05.11 тихо ()   >10 км    9/4 1000 м средняя 
[Sc|Ac trans]
+13.8 +9.3 74 +15  1011.6  0.1  719  274  +10.7         
09 02.05.11 340 (С) >10 км    8/5 1000 м кучево-дожд., средняя 
[Cb calv|Ac trans]
+17.5 +9.3 59 +20  1009.9  -0.9  719  270           
12 02.05.11 340 (С) >10 км    8/5 1000 м кучево-дожд., средняя 
[Cb calv|Ac trans]
+18.1 +8.9 55 +20  1009  -0.7  718  270           
15 02.05.11 350 (С) >10 км    8/3 1000 м верхняя 
[Cu hum|Ci fib]
+17.7 +7.8 52 +18  1008.9  -0.2  718  270    +19.5       
18 02.05.11 030 (СВ) >10 км    3/0 средняя 
[Ac trans]
+12.7 +7 68 +14  1010.6  0.7  718  275    +19.5       
21 02.05.11 330 (СЗ) >10 км    3/0 средняя 
[Ac trans]
+11.7 +6.6 71 +13  1010.6  0.7  718  276           
00 03.05.11 тихо ()   >10 км    3/0 средняя 
[Ac trans]
+12.3 +6.8 69 +12  1010.1  -0.4  718  276           
03 03.05.11 210 (ЮЗ) >10 км    5/1 1000 м средняя 
[Sc diur, vesp|Ac trans]
+12.7 +6.9 68 +14  1010.3  0.3  718  275           
06 03.05.11 130 (ЮВ) >10 км    8/0 верхняя 
[Ci fib]
+18.2 +8.7 54 +19  1009.6  0.3  719  270  +8.1         
09 03.05.11 130 (ЮВ) >10 км    9/6 1000 м кучево-дожд., средняя 
[Cb cap|Ac trans]
+19.5 +9.5 52 +22  1009.5  0.1  719  269           
12 03.05.11 320 (СЗ) >10 км  в посл. час гроза{ливн. осадки}  8/3 1000 м кучево-дожд., средняя 
[Cb calv|Ac trans]
+19.7 +11.6 59 +24  1009.2  -0.2  718  268           
15 03.05.11 320 (СЗ) >10 км    10/3 1000 м кучево-дожд., средняя, верхняя 
[Cb calv|Ac trans|Ci fib]
+18.6 +8.6 52 +20  1009.7  0.2  719  270    +20.6       
18 03.05.11 200 (Ю) >10 км    8/0 средняя 
[Ac trans]
+14.9 +11.6 81 +19  1011.1  0.2  719  273    +20.6       
21 03.05.11 тихо ()   >10 км  слаб. ливневой дождь  10/6 1000 м кучево-дожд., средняя 
[Cb cap|Ac und]
+13.7 +11 84 +17  1010.1  -1.2  718  273           
00 04.05.11 130 (ЮВ) >10 км  {ливн. осадки}  10/3 1000 м кучево-дожд., средняя 
[Cb calv|Ac und]
+14 +9.9 76 +17  1009.3  -0.7  718  273           
03 04.05.11 100 (В) >10 км  в посл. час туман  8/8 50 м средняя 
[Ac trans]
+11.7 +11.3 97 +16  1009.5  -0.2  717  274           
06 04.05.11 060 (СВ) >10 км  {туман}  6/3 600 м верхняя 
[Cu hum|Ci fib]
+17.6 +11.3 67 +22  1008.6  0.2  718  270  +10.9    0.0     
09 04.05.11 110 (В) >10 км    8/4 600 м верхняя 
[Cu med, cong|Ci fib]
+20.3 +11.5 57 +24  1007.1  -0.9  717  267           
12 04.05.11 100 (В) >10 км    8/4 600 м кучево-дожд., верхняя 
[Cb calv|Ci fib]
+21.5 +10.5 49 +24  1005.2  -1.6  716  265           
15 04.05.11 300 (СЗ) >10 км  гроза без осадков  10/6 700 м кучево-дожд., средняя 
[Cb calv|Ac und]
+15.4 +9.5 68 +16  1006.3  716  271    +22       
18 04.05.11 010 (С) >10 км  гроза, ливневой дождь  10/6 600 м кучево-дожд., средняя 
[Cb cap|Ac und]
+12.9 +11.8 93 +17  1007.6  0.8  716  273    +22       
21 04.05.11 110 (В) >10 км  {гроза, ливн. осадки}  10/5 600 м кучево-дожд., средняя 
[Cb calv|Ac und]
+11.9 +11 94 +16  1007.1  -0.6  716  274           
00 05.05.11 210 (ЮЗ) >10 км  {ливн. осадки}  5/0 средняя 
[Ac trans]
+10.7 +10.1 96 +14  1006.3  -1  715  275           
03 05.05.11 070 (В) >10 км    5/3 600 м кучево-дожд., средняя, верхняя 
[Cb calv|Ac trans|Ci fib]
+11.6 +10.7 94 +15  1006.3  0.2  715  274           
06 05.05.11 100 (В) >10 км    8/1 1000 м кучево-дожд., средняя 
[Cb calv|Ac trans]
+16.4 +13.3 82 +24  1005.4  0.1  715  269  +9.7       
09 05.05.11 080 (В) >10 км    10/6 480 м кучево-дожд., средняя 
[Cb calv|Ac und]
+18.2 +13 72 +26  1005.3  0.3  716  268           
12 05.05.11 160 (Ю) >10 км    10/8 600 м кучево-дожд., средняя 
[Cb calv|Ac und]
+18.6 +13.5 72 +26  1005.5  0.2  716  267           
15 05.05.11 210 (ЮЗ) >10 км    10/8 600 м кучево-дожд., средняя 
[Cb calv|Ac und]
+17.2 +13.4 78 +25  1006.6  0.8  716  269    +19.2       
18 05.05.11 320 (СЗ) >10 км    10/6 480 м средняя 
[Sc|Ac und]
+14.2 +13.2 94 +21  1008.3  1.1  717  272    +19.2       
21 05.05.11 300 (СЗ) 10 км  слаб. ливневой дождь  10/8 300 м кучево-дожд., средняя 
[Cb cap|Ac und]
+13.2 +12.6 96 +19  1009.1  0.6  718  273           
00 06.05.11 320 (СЗ) >10 км  {ливн. осадки}  10/8 120 м кучево-дожд., средняя 
[Cb cap|Ac und]
+12.7 +12.1 96 +17  1009.3  0.1  718  274           
03 06.05.11 310 (СЗ) >10 км    10/10 150 м 
[St]
+12.4 +11.7 96 +16  1010.1  0.7  718  274           
06 06.05.11 290 (З) >10 км    10/0 средняя 
[Sc|Ac und]
+13.3 +11.5 89 +18  1010.9  0.8  719  274      0.3     
09 06.05.11 280 (З) >10 км  слаб. ливневой дождь  10/6 630 м кучево-дожд., средняя 
[Cb cap|Ac und]
+15.6 +11.7 78 +19  1010.3  0.1  719  272           
12 06.05.11 310 (СЗ) >10 км  в посл. час ливневой дождь  10/6 600 м кучево-дожд., средняя 
[Cb cap|Ac inh]
+14.7 +12.2 85 +19  1010.8  0.4  719  272           
15 06.05.11 300 (СЗ) >10 км  {ливн. осадки}  10/8 480 м кучево-дожд., средняя 
[Cb cap|Ac und]
+14.1 +11.5 84 +17  1012.2  1.1  720  274    +17.5       
18 06.05.11 290 (З) >10 км    6/5 450 м кучево-дожд., средняя 
[Cb calv|Ac trans]
+12.1 +10.2 88 +13  1014.5  1.1  721  276    +17.5     
21 06.05.11 270 (З) >10 км    4/4 330 м 
[Sc]
+10.8 +9.3 90 +10  1014.7  0.1  721  278           
00 07.05.11 290 (З) >10 км    6/6 270 м 
[St]
+10.4 +9 91 +9  1015.8  722  279           
03 07.05.11 290 (З) 3000 м  дымка  10/10 120 м 
[St]
+9.4 +8.6 95 +7  1017.2  1.1  723  280           
06 07.05.11 280 (З) 10  10 км    9/4 200 м средняя 
[St|Ac trans]
+9.6 +7 84 +7  1018  0.8  723  280  +9.4         
09 07.05.11 280 (З) >10 км    4/3 300 м средняя 
[Sc|Ac trans]
+12.4 +5.5 63 +11  1018.6  724  278           
12 07.05.11 290 (З) >10 км    8/3 600 м верхняя 
[Cu hum|Ci fib]
+13.5 +5.4 58 +12  1019  0.6  725  277           
15 07.05.11 290 (З) >10 км    9/3 600 м верхняя 
[Sc diur, vesp|Ci fib]
+11.9 +4 58 +11  1020.8  1.4  726  279    +13.7       
18 07.05.11 280 (З) >10 км    6/0 средняя 
[Ac trans]
+9.1 +3.8 69 +8  1021.3  726  282    +13.7       
21 07.05.11 290 (З) >10 км    3/0 средняя 
[Ac trans]
+7.8 +3 72 +7  1020.8  -0.7  725  284           
00 08.05.11 310 (СЗ) >10 км    8/0 средняя 
[Ac trans]
+7.7 +4.3 79 +7  1019.7  -1  724  283           
03 08.05.11 300 (СЗ) >10 км    10/4 600 м средняя 
[Sc|Ac und]
+7.4 +5.6 88 +7  1018.8  -0.9  724  283           
06 08.05.11 290 (З) >10 км    10/3 600 м средняя 
[Sc|Ac und]
+8.7 +4.5 75 +8  1018  -0.5  723  282  +7.2         
09 08.05.11 300 (СЗ) >10 км    9/3 600 м средняя 
[Sc|Ac trans]
+11.8 +6.8 71 +11  1016.6  -0.8  723  278           
12 08.05.11 310 (СЗ) >10 км    10/4 600 м средняя 
[Sc|Ac und]
+10.3 +8.4 88 +10  1017.2  0.4  723  279           
15 08.05.11 360 (С) >10 км    10/8 360 м средняя 
[Sc diur, vesp|Ac und]
+10.2 +8.6 90 +10  1016.9  -0.3  723  279    +12.3       
18 08.05.11 360 (С) 10 км    10/8 150 м средняя 
[Sc diur, vesp|Ac und]
+9.1 +8.5 96 +10  1017.5  0.4  723  280    +12.3       
21 08.05.11 320 (СЗ) 4000 м  слаб. морось  10/10 270 м 
[St]
+8.9 +8.6 98 +10  1017.2  -0.3  723  280           
00 09.05.11 290 (З) 1900 м  слаб. морось{туман}  10/10 180 м 
[St]
+8.7 +8.5 99 +9  1017.1  -0.1  723  281           
03 09.05.11 270 (З) 10 км  слаб. дождь{морось}  10/8 150 м средняя 
[Sc|Ac und]
+7.6 +6.9 95 +5  1017.4  723  282           
06 09.05.11 270 (З) >10 км  слаб. дождь{морось}  10/6 210 м средняя 
[St|Ac und]
+8.4 +7.6 95 +7  1018  0.8  723  281  +7.6         
09 09.05.11 290 (З) >10 км    9/8 450 м кучево-дожд., средняя 
[Cb calv|Ac trans]
+11.1 +8.2 82 +10  1017.9  0.4  723  279           
12 09.05.11 290 (З) >10 км    8/5 600 м кучево-дожд., средняя 
[Cb cap|Ac trans]
+13.4 +7.6 68 +13  1017.7  0.2  724  277           
15 09.05.11 280 (З) >10 км    9/8 600 м кучево-дожд., средняя 
[Cb cap|Ac trans]
+13 +7.1 67 +13  1017.9  0.1  724  277    +14.1       
18 09.05.11 270 (З) >10 км    5/3 600 м кучево-дожд., средняя 
[Cb calv|Ac trans]
+9.8 +6.9 82 +10  1019.1  0.1  724  280    +14.1  0.8     
21 09.05.11 250 (З) >10 км    4/0 средняя 
[Ac trans]
+6.9 +5.9 93 +6  1018.7  -0.9  723  283           
00 10.05.11 280 (З) >10 км    8/0 верхняя 
[Ci fib]
+9.5 +7.3 86 +11  1018  0.1  723  280           
03 10.05.11 320 (СЗ) >10 км    9/3 1000 м средняя 
[Sc|Ac trans]
+8.9 +7.3 90 +8  1018.5  0.3  724  281           
06 10.05.11 140 (ЮВ) >10 км    9/4 600 м средняя 
[Sc|Ac trans]
+12.6 +8.9 78 +13  1017.5  -0.2  723  277  +6         
09 10.05.11 100 (В) >10 км    8/5 600 м кучево-дожд., верхняя 
[Cb calv|Ci fib]
+15.7 +9.7 67 +17  1016.3  -0.6  723  274           
12 10.05.11 320 (СЗ) 4000 м  гроза, ливневой дождь  10/8 660 м кучево-дожд., средняя 
[Cb cap|Ac und]
+13.5 +11.4 87 +17  1015.9  -0.7  722  275           
15 10.05.11 020 (С) >10 км  в посл. час гроза{ливн. осадки}  9/6 500 м кучево-дожд., средняя 
[Cb cap|Ac inh]
+12.6 +11.4 92 +16  1016.5  0.4  723  276    +17.9       
18 10.05.11 310 (СЗ) >10 км  слаб. ливневой дождь{гроза}  10/8 240 м кучево-дожд., средняя 
[Cb cap|Ac und]
+8.7 +7.5 92 +7  1018.4  723  281    +17.9     
21 10.05.11 300 (СЗ) >10 км  в посл. час гроза{ливн. осадки}  6/6 480 м кучево-дожд. 
[Cb calv]
+7.9 +6.6 92 +7  1018.5  723  282           
00 11.05.11 250 (З) >10 км  {гроза, ливн. осадки}  6/6 480 м 
[Sc diur, vesp]
+7.5 +6.4 93 +8  1018.9  724  283           
03 11.05.11 270 (З) >10 км    10/10 1000 м 
[Sc]
+8.3 +6.6 89 +8  1018.5  -0.2  723  282           
06 11.05.11 310 (СЗ) >10 км    8/4 600 м средняя 
[Sc|Ac trans]
+11.5 +7.2 75 +11  1018  0.1  724  278  +6.5       
09 11.05.11 030 (СВ) >10 км    9/5 600 м кучево-дожд., средняя 
[Cb calv|Ac trans]
+12.8 +7.5 70 +13  1017.6  0.1  723  277           
12 11.05.11 150 (ЮВ) >10 км    9/6 800 м кучево-дожд., средняя 
[Cb calv|Ac trans]
+15.1 +8.7 66 +16  1016.6  -0.6  723  274           
15 11.05.11 070 (В) >10 км    6/4 1000 м кучево-дожд., средняя 
[Cb calv|Ac trans]
+13.3 +9.1 76 +14  1016  -0.9  722  276    +15.3       
18 11.05.11 070 (В) >10 км    3/0 средняя 
[Ac trans]
+10.1 +8.9 92 +9  1016.5  -0.1  722  279    +15.3       
21 11.05.11 070 (В) >10 км    6/0 средняя 
[Ac trans]
+9.6 +8.7 94 +8  1014.8  -1.7  721  279           
00 12.05.11 070 (В) >10 км    10/4 1000 м средняя 
[Sc|Ac und]
+9.7 +8.7 94 +9  1013.9  -0.8  720  279           
03 12.05.11 090 (В) >10 км    10/8 800 м средняя 
[Sc|Ac und]
+9.8 +8.7 93 +9  1013.5  -0.3  720  279           
06 12.05.11 070 (В) >10 км  слаб. дождь  10/5 600 м средняя 
[Sc|Ac und]
+10.3 +8.7 90 +9  1012.6  -0.8  720  278  +9.4         
09 12.05.11 060 (СВ) >10 км  {дождь}  10/4 300 м средняя 
[Sc|Ac und]
+10.7 +9.4 92 +11  1011.6  -0.9  719  277           
12 12.05.11 060 (СВ) 4000 м  дождь  10/10 120 м 
[Ns]
+10.4 +10.1 98 +11  1011.5  0.1  719  277           
15 12.05.11 060 (СВ) 10 км  {дождь}  10/8 120 м средняя 
[St|Ac und]
+10.9 +10.6 98 +13  1011  -0.4  719  276    +11       
18 12.05.11 070 (В) >10 км  {дождь}  10/8 240 м средняя 
[St|Ac und]
+10.6 +10.2 97 +12  1011.5  0.4  719  277    +11  10     
21 12.05.11 070 (В) 0600 м  туман  ?/?  
+10.8 +10.6 99 +13  1010.1  -1.2  718  276           
00 13.05.11 090 (В) 0600 м  туман  ?/?  
+10.7 +10.5 99 +13  1009.8  -0.4  718  276           
03 13.05.11 080 (В) >10 км  дымка{туман}  9/6 180 м средняя 
[St|Ac trans]
+11.1 +11 99 +14  1009.8  -0.1  718  276           
06 13.05.11 100 (В) 4000 м  дымка{туман}  10/8 180 м средняя 
[St|Ac und]
+12.2 +11.7 97 +16  1009.6  718  275  +10.5         
09 13.05.11 080 (В) >10 км    10/8 330 м кучево-дожд., средняя 
[Cb calv|Ac und]
+14 +11.9 87 +19  1009.5  0.2  718  273           
12 13.05.11 090 (В) >10 км  слаб. ливневой дождь  10/8 450 м кучево-дожд., средняя 
[Cb cap|Ac und]
+13.5 +11.6 88 +19  1009.7  0.1  718  273           
15 13.05.11 190 (Ю) >10 км  слаб. ливневой дождь  10/8 600 м кучево-дожд., средняя 
[Cb cap|Ac und]
+12.6 +11.7 94 +17  1010.1  0.2  718  274    +14.2       
18 13.05.11 250 (З) >10 км  слаб. ливневой дождь  10/8 450 м кучево-дожд., средняя 
[Cb cap|Ac und]
+11.3 +10.7 96 +15  1011.7  1.3  719  276    +14.2     
21 13.05.11 320 (СЗ) >10 км  {ливн. осадки}  10/6 600 м кучево-дожд., средняя 
[Cb calv|Ac und]
+11.5 +10.4 93 +15  1011.9  0.2  719  276           
00 14.05.11 300 (СЗ) >10 км  {ливн. осадки}  10/6 600 м кучево-дожд., средняя 
[Cb calv|Ac und]
+11 +10.3 95 +13  1011.8  -0.2  719  277           
03 14.05.11 260 (З) >10 км  в посл. час ливневой дождь  10/8 450 м кучево-дожд., средняя 
[Cb calv|Ac und]
+11.2 +10.7 97 +15  1012.5  0.7  720  276           
06 14.05.11 130 (ЮВ) 10 км  в посл. час ливневой дождь  10/8 210 м кучево-дожд., средняя 
[Cb calv|Ac und]
+13.5 +11.8 89 +19  1013  0.8  720  274  +10.6       
09 14.05.11 150 (ЮВ) >10 км  слаб. ливневой дождь  9/6 660 м кучево-дожд., верхняя 
[Cb cap|Ci fib]
+15.7 +11.2 75 +20  1012.8  0.2  720  272           
12 14.05.11 070 (В) >10 км  {ливн. осадки}  8/4 600 м кучево-дожд., средняя, верхняя 
[Cb calv|Ac trans|Ci fib]
+18.1 +10.2 60 +21  1011.7  -0.7  720  270           
15 14.05.11 070 (В) >10 км    8/3 600 м кучево-дожд., верхняя 
[Cb calv|Ci fib]
+17.3 +10.3 63 +20  1011.5  -0.3  720  271    +18.2       
18 14.05.11 170 (Ю) >10 км    3/3 600 м 
[Sc diur, vesp]
+13.3 +9.5 78 +15  1013.5  1.2  721  275    +18.2     
21 14.05.11 210 (ЮЗ) >10 км    6/0 средняя, верхняя 
[Ac trans|Ci fib]
+11.3 +8 80 +12  1014  0.1  721  277           
00 15.05.11 260 (З) >10 км    3/0 
+10.9 +7.7 81 +11  1013.6  -0.4  720  278           
03 15.05.11 180 (Ю) >10 км    9/0 верхняя 
[Ci fib]
+11.9 +8.2 78 +12  1013.6  -0.1  721  277           
06 15.05.11 160 (Ю) >10 км    8/3 600 м средняя 
[Sc|Ac trans]
+16.1 +8.5 61 +17  1013.6  0.8  721  273  +8.5         
09 15.05.11 080 (В) >10 км    8/4 600 м средняя 
[Sc|Ac trans]
+17.9 +7.9 52 +18  1013.3  721  271           
12 15.05.11 250 (З) >10 км    8/4 600 м средняя 
[Sc|Ac trans]
+19.1 +6.1 43 +20  1012.6  -0.5  721  270           
15 15.05.11 320 (СЗ) >10 км  гроза без осадков{ливн. осадки}  9/6 800 м кучево-дожд., средняя 
[Cb cap|Ac As]
+14.5 +10.8 78 +17  1014.3  0.9  721  274    +19.8       
18 15.05.11 250 (З) >10 км  гроза без осадков{ливн. осадки}  9/6 600 м кучево-дожд., средняя 
[Cb cap|Ac trans]
+12.4 +9.8 84 +14  1016.6  1.8  723  277    +19.8  0.0     
21 15.05.11 250 (З) >10 км  слаб. ливневой дождь{гроза}  10/6 600 м кучево-дожд., средняя 
[Cb cap|Ac und]
+10.8 +9.1 89 +11  1017.4  0.5  723  279           
00 16.05.11 270 (З) >10 км  {гроза, ливн. осадки}  9/4 600 м кучево-дожд., средняя 
[Cb cap|Ac As]
+11.5 +9.4 87 +12  1017.2  0.5  723  278           
03 16.05.11 290 (З) >10 км  слаб. дождь  9/6 1000 м средняя 
[Sc|Ac As]
+10.9 +9.6 92 +11  1018.4  724  279           
06 16.05.11 260 (З) >10 км  {дождь}  10/5 300 м средняя 
[Sc|Ac und]
+12.8 +11 89 +15  1019.5  1.4  725  277  +10.6    0.5     
09 16.05.11 310 (СЗ) >10 км    6/6 500 м кучево-дожд. 
[Cb calv]
+16 +10.3 69 +18  1019.1  0.2  725  274           
12 16.05.11 300 (СЗ) >10 км    5/5 600 м кучево-дожд. 
[Cb calv]
+18.2 +7.7 50 +19  1018.1  -0.6  725  272           
15 16.05.11 360 (С) >10 км    4/3 600 м средняя 
[Sc diur, vesp|Ac trans]
+17.7 +7.5 51 +19  1018.3  0.1  725  273    +18.8       
18 16.05.11 030 (СВ) >10 км    3/0 средняя 
[Ac trans]
+12.1 +9.6 85 +13  1020.7  1.2  726  278    +18.8  0.0     
21 16.05.11 220 (ЮЗ) >10 км    3/0 средняя 
[Ac trans]
+10.5 +8.7 89 +10  1020.5  -0.5  725  280           
00 17.05.11 240 (ЮЗ) >10 км    ясно 
+9.2 +6.2 81 +9  1021  0.2  725  282           
03 17.05.11 270 (З) >10 км    3/0 средняя 
[Ac trans]
+13.2 +9.2 77 +14  1021.1  0.9  726  277           
06 17.05.11 330 (СЗ) >10 км    4/3 600 м средняя 
[Cu hum|Ac trans]
+17.4 +10.2 63 +20  1021.6  1.2  727  273  +8.8         
09 17.05.11 340 (С) >10 км    8/5 600 м средняя 
[Cu hum|Ac trans]
+19 +9.7 55 +20  1021.1  -0.2  727  272           
12 17.05.11 340 (С) >10 км    5/4 600 м средняя 
[Cu hum|Ac trans]
+20.6 +9 47 +21  1020.4  -0.4  726  271           
15 17.05.11 010 (С) >10 км    3/3 1000 м 
[Cu hum]
+19.4 +8.6 50 +20  1020.7  0.1  727  272    +21.2       
18 17.05.11 040 (СВ) >10 км    ясно 
+15.2 +10 71 +17  1022.8  0.1  728  276    +21.2       
21 17.05.11 тихо ()   >10 км    ясно 
+12.7 +9.6 81 +14  1023.1  -0.2  727  278           
00 18.05.11 100 (В) >10 км    ясно 
+10.1 +8.7 91 +10  1023.3  -0.3  727  281           
03 18.05.11 130 (ЮВ) >10 км    ясно 
+13.4 +10.5 83 +17  1022.9  0.3  727  277           
06 18.05.11 100 (В) >10 км    3/0 
[Cu hum]
+17.7 +12 69 +23  1022.6  0.5  728  273  +9.8         
09 18.05.11 110 (В) >10 км    6/6 600 м 
[Cu hum]
+20.7 +11.9 57 +25  1021.7  -0.4  727  270           
12 18.05.11 110 (В) >10 км    6/6 600 м 
[Cu hum]
+22.1 +12.3 54 +27  1020.3  -1  727  268           
15 18.05.11 110 (В) >10 км    4/4 600 м 
[Cu hum]
+20.1 +12.4 61 +25  1019.8  -0.8  726  270    +22.2       
18 18.05.11 090 (В) >10 км    3/0 средняя 
[Ac trans]
+15.9 +11.6 76 +20  1020.9  0.3  726  274    +22.2       
21 18.05.11 070 (В) >10 км    4/0 средняя 
[Ac trans]
+11.5 +9.8 89 +13  1021  -0.7  726  279           
00 19.05.11 110 (В) >10 км    3/0 средняя 
[Ac trans]
+12 +8.9 81 +11  1020.1  -0.8  725  278           
03 19.05.11 080 (В) >10 км    8/0 средняя, верхняя 
[Ac trans|Ci]
+11.3 +8.4 82 +11  1019.1  -1.1  724  279           
06 19.05.11 110 (В) >10 км    9/0 верхняя 
[Ci fib]
+17.7 +9.4 58 +18  1017.2  -0.6  724  272  +9.8         
09 19.05.11 110 (В) 13  >10 км    8/0 верхняя 
[Ci fib]
+20.6 +9.7 50 +22  1015.6  -1.1  723  269           
12 19.05.11 110 (В) >10 км    10/1 600 м верхняя 
[Cu hum|Ci fib]
+19.5 +10.4 56 +21  1014.9  -0.9  722  270           
15 19.05.11 090 (В) >10 км    10/3 1000 м верхняя 
[Sc diur, vesp|Ci fib]
+18.5 +11 62 +21  1014.6  -0.4  722  270    +21.5       
18 19.05.11 090 (В) >10 км    10/0 средняя 
[Ac und]
+18.5 +11 62 +22  1014.6  -0.4  722  271    +21.5       
21 19.05.11 100 (В) >10 км    10/3 1000 м средняя 
[Sc|Ac und]
+13 +10.2 83 +15  1016.2  0.1  722  276           
00 20.05.11 090 (В) >10 км    10/3 1000 м средняя 
[Sc|Ac und]
+12.3 +10 86 +13  1016  0.1  722  277           
03 20.05.11 060 (СВ) >10 км    10/4 600 м кучево-дожд., средняя 
[Cb calv|Ac und]
+11.5 +10.7 95 +14  1017.1  0.9  723  277           
06 20.05.11 090 (В) >10 км  в посл. час ливневой дождь  10/8 180 м кучево-дожд., средняя 
[Cb calv|Ac und]
+12.4 +11.3 93 +16  1017.4  0.4  723  277  +10.9         
09 20.05.11 090 (В) >10 км    9/5 240 м кучево-дожд., средняя 
[Cb calv|Ac trans]
+14.4 +12.7 90 +20  1017.6  0.6  724  274           
12 20.05.11 100 (В) >10 км  в посл. час ливневой дождь  10/3 600 м кучево-дожд., средняя 
[Cb calv|Ac und]
+14.3 +11.4 83 +18  1016.9  -0.7  723  275           
15 20.05.11 110 (В) >10 км  {ливн. осадки}  10/4 600 м кучево-дожд., средняя 
[Cb calv|Ac und]
+14.5 +12.7 89 +20  1016.1  -0.7  723  274    +17       
18 20.05.11 110 (В) >10 км  {ливн. осадки}  10/3 1000 м средняя 
[Sc diur, vesp|Ac und]
+14.5 +13.3 93 +22  1016.2  -0.1  723  274    +17     
21 20.05.11 110 (В) >10 км  в посл. час ливневой дождь  10/5 600 м кучево-дожд., средняя 
[Cb calv|Ac und]
+14 +12.8 92 +20  1015.7  -0.6  722  274           
00 21.05.11 050 (СВ) >10 км  {ливн. осадки}  10/4 600 м кучево-дожд., средняя 
[Cb calv|Ac und]
+13.4 +12.1 92 +19  1015.1  -0.6  722  275           
03 21.05.11 050 (СВ) >10 км    5/1 600 м средняя, верхняя 
[Sc diur, vesp|Ac trans|Ci fib]
+12.4 +11.6 95 +16  1015.6  0.3  722  276           
06 21.05.11 120 (ЮВ) >10 км    8/5 450 м кучево-дожд., средняя 
[Cb calv|Ac trans]
+16.1 +13.7 86 +23  1014.8  0.1  722  272  +11.6    0.5     
09 21.05.11 100 (В) >10 км    10/8 600 м кучево-дожд., средняя 
[Cb calv|Ac und]
+17.6 +13.6 77 +25  1014.4  0.1  722  270           
12 21.05.11 090 (В) >10 км    8/5 600 м кучево-дожд., средняя 
[Cb calv|Ac trans]
+19.5 +12.7 65 +26  1012.7  -1.3  721  269           
15 21.05.11 060 (СВ) >10 км    10/6 600 м кучево-дожд., средняя 
[Cb calv|Ac und]
+18.4 +13.1 71 +26  1012.7  -0.2  721  269    +20       
18 21.05.11 050 (СВ) >10 км    10/5 600 м кучево-дожд., средняя 
[Cb calv|Ac und]
+16.4 +12 75 +21  1013.6  0.5  721  272    +20       
21 21.05.11 020 (С) >10 км  слаб. ливневой дождь  10/8 900 м кучево-дожд., средняя 
[Cb cap|Ac und]
+14.9 +11.4 80 +20  1013.4  -0.4  721  273           
00 22.05.11 340 (С) >10 км  слаб. ливневой дождь  10/6 900 м кучево-дожд., средняя 
[Cb cap|Ac und]
+14.7 +11.2 80 +19  1012.8  -0.6  720  273           
03 22.05.11 010 (С) >10 км  {ливн. осадки}  10/5 600 м кучево-дожд., средняя 
[Cb calv|Ac und]
+14.4 +11.4 82 +19  1013.8  0.9  721  274           
06 22.05.11 250 (З) 10 км  слаб. ливневой дождь  10/6 900 м кучево-дожд., средняя 
[Cb cap|Ac und]
+13.9 +12.1 89 +19    0.4  721  274  +14.2       
09 22.05.11 290 (З) >10 км  слаб. ливневой дождь  10/8 900 м кучево-дожд., средняя 
[Cb cap|Ac und]
+14.2 +11.5 84 +18  1014.3  721  274           
12 22.05.11 290 (З) >10 км  {ливн. осадки}  10/4 900 м кучево-дожд., средняя 
[Cb calv|Ac und]
+14.4 +11.9 85 +18  1013.7  -0.6  721  274           
15 22.05.11 290 (З) >10 км  слаб. ливневой дождь  10/8 800 м кучево-дожд., средняя 
[Cb cap|Ac und]
+14 +12 88 +18  1013.3  -0.4  721  274    +14.8       
18 22.05.11 290 (З) >10 км  слаб. ливневой дождь  10/8 600 м кучево-дожд., средняя 
[Cb cap|Ac und]
+13.5 +12 91 +17  1013.8  0.4  721  274    +14.8     
21 22.05.11 300 (СЗ) 10 км  слаб. ливневой дождь  10/8 210 м кучево-дожд., средняя 
[Cb cap|Ac und]
+13.1 +12.7 97 +18  1013.5  -0.4  721  274           
00 23.05.11 260 (З) >10 км  {ливн. осадки}  10/8 210 м кучево-дожд., средняя 
[Cb cap|Ac und]
+13.2 +12.8 97 +18  1013.3  0.1  721  274           
03 23.05.11 280 (З) 10 км  слаб. ливневой дождь  10/8 240 м кучево-дожд., средняя 
[Cb cap|Ac und]
+13.1 +12.6 97 +18  1014  0.6  721  275           
06 23.05.11 300 (СЗ) 2000 м  слаб. ливневой дождь{гроза}  10/8 180 м кучево-дожд., средняя 
[Cb cap|Ac und]
+13.4 +12.9 97 +20  1014.7  0.7  722  274  +12.9    13     
09 23.05.11 020 (С) >10 км  слаб. ливневой дождь  10/8 400 м кучево-дожд., средняя 
[Cb cap|Ac und]
+15.6 +14 90 +25  1014.9  0.6  722  272           
12 23.05.11 320 (СЗ) >10 км  слаб. ливневой дождь  10/8 330 м кучево-дожд., средняя 
[Cb cap|Ac und]
+16.3 +15.1 93 +27  1014.6  0.1  722  271           
15 23.05.11 тихо ()   >10 км  {ливн. осадки}  10/5 300 м кучево-дожд., средняя 
[Cb calv|Ac und]
+15.9 +14.5 91 +25  1014.9  0.2  722  272    +17       
18 23.05.11 300 (СЗ) 2000 м  местами туман поземный  6/3 480 м кучево-дожд., средняя 
[Cb calv|Ac trans]
+13.6 +13.4 99 +22  1016.7  1.3  723  275    +17  19     
21 23.05.11 310 (СЗ) 0200 м  туман  6/0 средняя 
[Ac trans]
+13.3 +13.1 99 +19  1017.5  0.7  724  275           
00 24.05.11 300 (СЗ) >10 км  {туман}  6/0 средняя 
[Ac trans]
+13.4 +12.5 94 +18  1017.8  0.3  724  275           
03 24.05.11 260 (З) >10 км    8/6 600 м кучево-дожд., средняя 
[Cb calv|Ac trans]
+13.8 +13.1 96 +20  1018.8  725  275           
06 24.05.11 320 (СЗ) >10 км    9/4 600 м кучево-дожд., средняя 
[Cb cap|Ac As]
+17.3 +13.8 80 +26  1018.8  0.6  725  272  +11.3         
09 24.05.11 310 (СЗ) >10 км  {ливн. осадки}  6/1 600 м средняя 
[Cu med, cong|Ac As]
+20.1 +15.1 73 +30  1019  0.6  725  269           
12 24.05.11 360 (С) >10 км  {ливн. осадки}  4/3 600 м средняя 
[Cu med, cong|Ac trans]
+22.8 +14.1 58 +31  1017.7  -0.8  725  267           
15 24.05.11 030 (СВ) >10 км  гроза без осадков  4/3 600 м кучево-дожд., средняя 
[Cb calv|Ac trans]
+22.5 +15.2 63 +32  1017.1  -0.6  725  266    +23.4       
18 24.05.11 240 (ЮЗ) >10 км  слаб. ливневой дождь, в посл. час гроза  8/5 600 м кучево-дожд., средняя 
[Cb cap|Ac As]
+15.5 +12.9 84 +22  1019.2  0.7  725  274    +23.4  0.5     
21 24.05.11 190 (Ю) >10 км  {ливн. осадки}  3/0 средняя 
[Ac trans]
+15.4 +12.8 84 +23  1018.3  -0.7  724  274           
00 25.05.11 020 (С) >10 км  {ливн. осадки}  10/3 1000 м средняя 
[Sc|Ac und]
+15.3 +13.2 87 +24  1017.9  -0.4  724  274           
03 25.05.11 110 (В) >10 км    6/0 средняя, верхняя 
[Ac trans|Ci fib]
+17.1 +13.6 80 +26  1017.8  0.2  724  272           
06 25.05.11 110 (В) >10 км    6/0 средняя, верхняя 
[Ac trans|Ci fib]
+21.7 +14.2 62 +30  1016.9  724  267  +13.2       
09 25.05.11 090 (В) >10 км    8/3 600 м средняя 
[Cu hum|Ac trans]
+23.5 +13.5 53 +31  1016.3  -0.3  724  266           
12 25.05.11 060 (СВ) >10 км    8/3 600 м средняя 
[Cu hum|Ac trans]
+24.3 +12.2 47 +29  1014.7  -1.4  723  265           
15 25.05.11 060 (СВ) >10 км    8/3 600 м кучево-дожд., средняя 
[Cb calv|Ac trans]
+22.7 +13.2 55 +29  1014.4  -0.6  722  266    +24.4       
18 25.05.11 170 (Ю) >10 км    9/9 900 м 
+19.5 +12.8 65 +27  1015.1  0.2  723  269    +24.4       
21 25.05.11 330 (СЗ) >10 км    4/3 600 м кучево-дожд., средняя 
[Cb calv|Ac trans]
+17 +13.7 81 +24  1015.4  -0.2  722  271           
00 26.05.11 310 (СЗ) >10 км    8/3 600 м кучево-дожд., средняя 
[Cb calv|Ac trans]
+16.6 +12.4 76 +22  1015  -0.5  722  272           
03 26.05.11 310 (СЗ) >10 км    10/5 600 м кучево-дожд., средняя 
[Cb calv|Ac trans]
+15.8 +12.8 82 +22  1015.3  -0.1  722  273           
06 26.05.11 280 (З) >10 км    9/6 600 м кучево-дожд., средняя 
[Cb calv|Ac trans]
+18 +13.4 74 +25  1015.2  0.3  722  270  +15.8         
09 26.05.11 260 (З) >10 км    8/3 600 м кучево-дожд., средняя 
[Cb calv|Ac trans]
+22.7 +15.3 63 +33  1013.9  -0.4  722  265           
12 26.05.11 290 (З) >10 км  гроза без осадков  8/5 600 м кучево-дожд., средняя, верхняя 
[Cb calv|Ac trans|Ci fib]
+21.7 +15 66 +31  1012.6  -1.4  721  266           
15 26.05.11 300 (СЗ) >10 км  гроза без осадков  9/6 600 м кучево-дожд., средняя 
[Cb calv|Ac trans]
+20.6 +14.3 67 +29  1014  -1.4  722  268    +23.2       
18 26.05.11 280 (З) >10 км  {гроза}  8/3 600 м кучево-дожд., средняя 
[Cb calv|Ac trans]
+16.4 +13.3 82 +23  1016.4  -1.4  723  272    +23.2       
21 26.05.11 290 (З) >10 км    6/4 600 м кучево-дожд., средняя 
[Cb calv|Ac trans]
+15.7 +14.2 91 +24  1016.2  -0.3  723  272           
00 27.05.11 290 (З) >10 км    9/6 900 м кучево-дожд., средняя 
[Cb calv|Ac trans]
+15.5 +14.3 93 +23  1017  0.8  723  273           
03 27.05.11 360 (С) 4000 м  слаб. ливневой дождь{туман}  10/8 150 м кучево-дожд., средняя 
[Cb cap|Ac und]
+12.1 +11.7 97 +15  1019.4  1.6  725  277           
06 27.05.11 030 (СВ) >10 км  {ливн. осадки, туман}  9/5 300 м кучево-дожд., средняя 
[Cb calv|Ac trans]
+13.8 +10.5 80 +15  1021.2  1.6  726  277  +12       
09 27.05.11 030 (СВ) >10 км    8/8 600 м 
[Cu hum]
+17.2 +10.7 66 +20  1020.8  0.3  726  273           
12 27.05.11 020 (С) >10 км    4/4 600 м 
[Cu hum]
+18.8 +8.9 53 +19  1019.8  -0.7  726  272           
15 27.05.11 080 (В) >10 км    3/3 600 м 
[Sc diur, vesp]
+17.6 +8.2 54 +18  1019.6  -0.3  726  273    +19.2       
18 27.05.11 060 (СВ) >10 км    ясно 
+12.6 +6.5 66 +12  1020.4  -0.8  725  278    +19.2  0.0     
21 27.05.11 060 (СВ) >10 км    ясно 
+11 +6.3 73 +11  1019.7  -0.9  725  280           
00 28.05.11 050 (СВ) >10 км    ясно 
+10.6 +5.4 70 +11  1019.3  -0.5  724  280           
03 28.05.11 100 (В) >10 км    3/0 верхняя 
[Ci fib]
+10.8 +6.9 77 +10  1019.4  0.2  724  280           
06 28.05.11 110 (В) >10 км    3/0 средняя 
[Ac trans]
+16.4 +8.7 60 +16  1018.3  724  274  +8.4         
09 28.05.11 110 (В) >10 км    3/3 600 м 
[Cu hum]
+20.1 +11.1 56 +23  1015.8  -1.7  723  269           
12 28.05.11 110 (В) >10 км    3/0 кучево-дожд., средняя 
[Cb calv|Ac trans]
+21.3 +12.8 58 +27  1013.9  -1.5  722  267           
15 28.05.11 060 (СВ) >10 км    8/0 средняя 
[Ac trans]
+20.9 +12.5 59 +26  1013.1  -0.9  721  268    +21.8       
18 28.05.11 040 (СВ) >10 км    8/0 средняя, верхняя 
[Ac trans|Ci]
+16.8 +12.1 74 +23  1014.5  0.6  722  272    +21.8       
21 28.05.11 050 (СВ) >10 км    8/0 средняя, верхняя 
[Ac trans|Ci fib]
+14.3 +9.6 73 +15  1014.6  -0.4  722  274           
00 29.05.11 090 (В) >10 км    8/0 средняя, верхняя 
[Ac As|Ci sp]
+12 +8.3 78 +12  1014.4  -0.4  721  277           
03 29.05.11 140 (ЮВ) >10 км    8/0 средняя, верхняя 
[Ac As|Ci sp]
+14.6 +10.1 74 +17  1014.3  0.4  721  274           
06 29.05.11 010 (С) 74  >10 км    1/0 средняя, верхняя 
[Ac trans|Ci fib]
+12.5   1014.8  722    +11.4         
09 29.05.11 090 (В) >10 км    8/1 600 м средняя, верхняя 
[Cu hum|Ac trans|Ci fib]
+20.9 +11.5 55 +25  1014.8  0.6  723  268           
12 29.05.11 090 (В) >10 км    5/0 средняя, верхняя 
[Ac trans|Ci fib]
+22.5 +11.9 51 +27  1014.1  -0.4  722  267           
15 29.05.11 110 (В) >10 км    8/0 средняя, верхняя 
[Ac trans|Ci fib]
+21.2 +11.8 55 +26  1014.7  0.3  723  268    +22.7       
18 29.05.11 090 (В) >10 км    6/0 средняя 
[Ac trans]
+16.5 +11.2 71 +20  1016.2  0.7  723  273    +22.7       
21 29.05.11 100 (В) >10 км    6/0 средняя 
[Ac trans]
+14.5 +11 80 +17  1016.4  -0.2  723  274           
00 30.05.11 100 (В) >10 км    ясно 
+12.8 +11.4 91 +16  1016.7  723  276           
03 30.05.11 100 (В) >10 км    8/0 средняя, верхняя 
[Ac trans|Ci fib]
+13.4 +11.3 87 +17  1017.7  724  276           
06 30.05.11 110 (В) >10 км    8/0 верхняя 
[Ci fib]
+17.6 +12.2 71 +22  1018.2  1.2  725  272  +12.1         
09 30.05.11 110 (В) >10 км    8/0 верхняя 
[Ci fib]
+20.1 +11.5 58 +24  1018.9  1.1  725  270           
12 30.05.11 100 (В) >10 км    8/0 верхняя 
[Ci fib]
+21.7 +13.3 59 +28  1018.7  0.1  725  268           
15 30.05.11 100 (В) >10 км    9/0 верхняя 
[Ci fib]
+20.1 +12.9 63 +26  1018.7  -0.3  725  270    +22.1       
18 30.05.11 090 (В) >10 км    6/0 средняя, верхняя 
[Ac trans|Ci fib]
+16.4 +10.8 69 +19  1020.1  0.6  726  274    +22.1       
21 30.05.11 100 (В) >10 км    3/0 верхняя 
[Ci fib]
+13.6 +11.3 86 +17  1020.1  -0.5  725  276           
00 31.05.11 100 (В) >10 км    ясно 
+12.1 +10.3 89 +13  1019.9  -0.4  725  278           
03 31.05.11 120 (ЮВ) >10 км    6/0 средняя 
[Ac trans]
+12.4 +10.2 86 +14  1020  0.1  725  278           
06 31.05.11 120 (ЮВ) >10 км    4/1 600 м верхняя 
[Cu hum|Ci sp]
+18.4 +12.8 70 +24  1019  0.2  725  271  +11         
09 31.05.11 110 (В) >10 км    3/0 средняя 
[Ac trans]
+22.3 +11 49 +25  1018.1  -0.3  725  268           
12 31.05.11 110 (В) >10 км    1/0 средняя 
[Ac trans]
+23.8 +13.4 52 +31  1016.9  -0.3  724  266           
15 31.05.11 100 (В) >10 км    8/0 средняя, верхняя 
[Ac As|Ci]
+21.6 +13.3 59 +28  1016.3  -0.9  724  268    +24.1       
18 31.05.11 080 (В) >10 км    8/3 1000 м кучево-дожд., средняя 
[Cb calv|Ac trans]
+18.5 +12.5 68 +24  1016.9  0.1  724  271    +24.1       
21 31.05.11 090 (В) >10 км    3/0 средняя 
[Ac trans]
+16 +11.5 75 +20  1017.1  -0.3  724  273           
00 01.06.11 110 (В) >10 км    3/0 средняя 
[Ac trans]
+12.7 +11.3 91 +16  1016.9  -0.8  723  276           
03 01.06.11 120 (ЮВ) >10 км    1/0 верхняя 
[Ci fib]
+14.1 +12.5 90 +19  1016.9  0.3  723  275           
Время (UTC), дата Ветер
(°,м/с) 
Видим.   Явления Облачность Т
(°С)
Тd
(°С)
f(%) Тe
(°С)
Pmin
(гПа)
dP
(гПа)
Po
(мм)
O2
(г/м3)
Тmin Tmax R s Состояние
почвы